Regional Weather Roundup
Issued by NWS

Home | Current Version | Previous Version | Graphics & Text | Print | Product List | Glossary On
Versions: 1 2 3 4 5 6 7 8 9 10 11 12 13 14 15 16 17 18 19 20 21 22 23 24 25 26 27 28 29 30 31 32 33 34 35 36 37 38 39 40 41 42 43 44 45 46 47 48 49 50
000
ASUS43 KFSD 241402
RWRSD

WEATHER ROUNDUP FOR SOUTH DAKOTA
NATIONAL WEATHER SERVICE SIOUX FALLS SD
900 AM CDT SUN JUL 24 2016

NOTE: "FAIR" INDICATES FEW OR NO CLOUDS BELOW 12,000 FEET WITH NO
SIGNIFICANT WEATHER AND/OR OBSTRUCTIONS TO VISIBILITY.


SDZ001>005-009-010-012>017-241500-
NORTHWEST AND NORTH CENTRAL SOUTH DAKOTA

CITY           SKY/WX    TMP DP  RH WIND       PRES   REMARKS
BUFFALO          N/A     68  50  52 S5        30.06S
FAITH            N/A     63  53  70 CALM      30.10S
MOBRIDGE       CLOUDY    68  56  65 W7        30.04R
$$

SDZ012>016-024>037-041>051-057-063-072>074-241500-
SOUTHWEST AND SOUTH CENTRAL SOUTH DAKOTA

CITY           SKY/WX    TMP DP  RH WIND       PRES   REMARKS
RAPID CTY ARPT CLOUDY    66  55  67 SW3       30.14R
PIERRE         CLOUDY    68  58  70 N6        30.02F
CUSTER         CLOUDY    62  47  57 NE8       30.25R
ELLSWORTH AFB  CLOUDY    65  58  78 W3        30.14R
PHILIP         CLOUDY    67  57  70 W5        30.09R
PINE RIDGE     CLOUDY    67  53  61 E8        30.17R
WINNER         FAIR      73  55  53 N8        30.05S
$$

SDZ004>011-016>023-039-040-241500-
NORTHEAST SOUTH DAKOTA

CITY           SKY/WX    TMP DP  RH WIND       PRES   REMARKS
ABERDEEN       CLOUDY    70  59  68 NW10      30.02R
WATERTOWN      CLOUDY    69  61  75 NW10      29.99R
BROOKINGS      PTSUNNY   68  63  84 NW7       30.00R
SISSETON         N/A     71  61  70 NW12      29.94R
$$

SDZ017-020-022-023-036>040-048>070-241500-
SOUTHEAST SOUTH DAKOTA

CITY           SKY/WX    TMP DP  RH WIND       PRES   REMARKS
SIOUX FALLS    PTSUNNY   75  65  70 N7        29.99R
HURON          CLOUDY    66  60  81 N14       29.98F
CHAMBERLAIN    CLOUDY    73  60  65 N8        30.03R
MITCHELL       CLOUDY    68  62  81 N5        30.03R
YANKTON        MOSUNNY   73  66  78 N14       29.98R
$$

ABBREVIATIONS USED IN REMARKS
   TC - TEMPERATURE IN CELSIUS
  WCI - WIND CHILL INDEX
   HX - HEAT INDEX
  VSB - VISIBILITY





USA.gov is the U.S. government's official web portal to all federal, state and local government web resources and services.